Crestview, FL

1:07 PM CST on January 23, 2018 (GMT -0600)
Sikes

Weather History for KCEW - May, 2014

Change the Weather History Date:

Wednesday, May 14, 2014

  Actual Average Record
Temperature  
Mean Temperature 73 °F -  
Max Temperature 82 °F 84 °F 97 °F (1998)
Min Temperature 64 °F 57 °F -78 °F (2008)
Cooling Degree Days 8    
Growing Degree Days 23 (Base 50)    
Moisture  
Dew Point 68 °F    
Average Humidity 89    
Maximum Humidity 100    
Minimum Humidity 67    
Precipitation  
Precipitation 1.05 in - - ()
Sea Level Pressure  
Sea Level Pressure 30.00 in    
Wind  
Wind Speed 4 mph (SE)    
Max Wind Speed 17 mph    
Max Gust Speed 28 mph    
Visibility 5 miles    
Events Fog , Rain , Thunderstorm    
Averages and records for this station are not official NWS values.
T = Trace of Precipitation, MM = Missing Value Source: NWS Daily Summary

Daily Weather History Graph

Daily Weather History Graph

Search for Another Location

Airport or City:

Trip Planner

Search our weather history database for the weather conditions in past years. The results will help you decide how hot, cold, wet, or windy it might be!

Date:

Astronomy

May. 14, 2014 Rise Set
Actual Time 5:51 AM CDT 7:33 PM CDT
Civil Twilight 5:25 AM CDT 7:59 PM CDT
Nautical Twilight 4:53 AM CDT 8:31 PM CDT
Astronomical Twilight 4:20 AM CDT 9:05 PM CDT
Moon 7:40 PM CDT (5/14) 5:46 AM CDT (5/14)
Length of Visible Light 14h 34m
Length of Day
13h 41m
Full, 100% of the Moon is Illuminated
May 14
Full
May 14
Full
May 21
Last Quarter
May 28
New
Jun 5
First Quarter

Hourly Weather History & Observations

Time (CDT) Temp. Heat Index Dew Point Humidity Pressure Visibility Wind Dir Wind Speed Gust Speed Precip Events Conditions
12:53 AM 66.9 °F - 64.9 °F 93% 30.05 in 6.0 mi Calm Calm - N/A   Clear
1:53 AM 66.0 °F - 64.0 °F 93% 30.04 in 5.0 mi Calm Calm - N/A   Partly Cloudy
2:53 AM 64.9 °F - 63.0 °F 93% 30.03 in 4.0 mi Calm Calm - N/A   Scattered Clouds
3:09 AM 66.0 °F - 64.9 °F 96% 30.04 in 2.5 mi East 4.6 mph - N/A   Mostly Cloudy
3:21 AM 66.9 °F - 64.9 °F 93% 30.05 in 3.0 mi East 3.5 mph - N/A   Mostly Cloudy
3:53 AM 68.0 °F - 66.0 °F 93% 30.03 in 4.0 mi ENE 3.5 mph - N/A   Overcast
4:53 AM 69.1 °F - 66.9 °F 93% 30.03 in 5.0 mi NE 4.6 mph - N/A   Overcast
5:45 AM 70.0 °F - 68.0 °F 93% 30.03 in 6.0 mi NE 4.6 mph - 0.00 in Thunderstorm Overcast
5:53 AM 70.0 °F - 68.0 °F 93% 30.02 in 5.0 mi NE 3.5 mph - 0.00 in Rain , Thunderstorm Light Rain
6:05 AM 71.1 °F - 68.0 °F 90% 30.03 in 5.0 mi Calm Calm - 0.00 in   Mostly Cloudy
6:51 AM 69.8 °F - 69.8 °F 100% 30.04 in 1.8 mi Calm Calm - 0.01 in Rain Light Rain
6:52 AM 70.0 °F - 69.1 °F 97% 30.03 in 1.8 mi Calm Calm - 0.01 in Rain Light Rain
7:03 AM 71.1 °F - 69.1 °F 93% 30.04 in 2.0 mi NNE 3.5 mph - 0.01 in Rain Light Rain
7:14 AM 71.1 °F - 69.1 °F 93% 30.04 in 4.0 mi ENE 3.5 mph - 0.01 in   Mostly Cloudy
7:53 AM 72.0 °F - 69.1 °F 91% 30.04 in 4.0 mi Calm Calm - 0.01 in   Overcast
8:19 AM 73.0 °F - 70.0 °F 90% 30.04 in 5.0 mi ESE 5.8 mph - N/A Thunderstorm Overcast
8:33 AM 73.0 °F - 70.0 °F 90% 30.04 in 6.0 mi Calm Calm - N/A   Overcast
8:37 AM 73.0 °F - 70.0 °F 90% 30.04 in 6.0 mi Calm Calm - N/A Thunderstorm Overcast
8:53 AM 73.0 °F - 70.0 °F 90% 30.03 in 4.0 mi ESE 4.6 mph - 0.00 in Rain , Thunderstorm Light Thunderstorms and Rain
9:04 AM 73.0 °F - 71.1 °F 93% 30.04 in 2.0 mi Calm Calm - 0.01 in Rain , Thunderstorm Thunderstorms and Rain
9:22 AM 73.0 °F - 71.1 °F 93% 30.03 in 5.0 mi East 4.6 mph - 0.01 in Thunderstorm Overcast
9:40 AM 75.9 °F - 73.0 °F 91% 30.02 in 6.0 mi ESE 5.8 mph - 0.01 in Thunderstorm Overcast
10:42 AM 79.0 °F - 72.0 °F 79% 30.00 in 10.0 mi SE 13.8 mph 25.3 mph N/A   Overcast
10:53 AM 79.0 °F - 72.0 °F 79% 29.99 in 10.0 mi SE 13.8 mph 24.2 mph N/A   Overcast
11:01 AM 78.1 °F - 72.0 °F 81% 30.00 in 10.0 mi SSE 8.1 mph 24.2 mph 0.00 in Rain , Thunderstorm Light Rain
11:16 AM 80.1 °F 83.8 °F 72.0 °F 76% 30.00 in 10.0 mi SSE 10.4 mph 17.3 mph 0.00 in   Mostly Cloudy
11:53 AM 81.0 °F 85.2 °F 72.0 °F 74% 29.99 in 10.0 mi South 15.0 mph 23.0 mph 0.00 in   Mostly Cloudy
12:10 PM 81.0 °F 84.9 °F 71.1 °F 72% 30.00 in 10.0 mi South 16.1 mph 26.5 mph N/A   Mostly Cloudy
12:53 PM 80.1 °F 83.8 °F 72.0 °F 76% 29.98 in 10.0 mi South 12.7 mph 25.3 mph 0.00 in Rain Light Rain
1:42 PM 82.9 °F 87.5 °F 71.1 °F 67% 29.95 in 10.0 mi South 17.3 mph 26.5 mph 0.00 in   Mostly Cloudy
1:53 PM 82.0 °F 86.3 °F 71.1 °F 69% 29.94 in 10.0 mi SSE 9.2 mph 27.6 mph 0.00 in   Mostly Cloudy
2:18 PM 80.1 °F 83.6 °F 71.1 °F 74% 29.95 in 10.0 mi South 15.0 mph 24.2 mph N/A   Mostly Cloudy
2:33 PM 79.0 °F - 71.1 °F 77% 29.94 in 10.0 mi South 10.4 mph 24.2 mph 0.00 in Rain Light Rain
2:53 PM 79.0 °F - 71.1 °F 77% 29.93 in 10.0 mi SSE 10.4 mph 23.0 mph 0.00 in   Mostly Cloudy
4:53 PM 78.1 °F - 73.0 °F 84% 29.93 in 4.0 mi SSW 8.1 mph - 0.02 in Rain , Thunderstorm Light Rain
5:03 PM 77.0 °F - 73.0 °F 88% 29.94 in 2.0 mi SSW 10.4 mph 18.4 mph 0.04 in Rain , Thunderstorm Light Rain
5:17 PM 70.0 °F - 66.0 °F 87% 29.97 in 5.0 mi Variable 6.9 mph 24.2 mph 0.04 in Rain , Thunderstorm Rain
5:21 PM 70.0 °F - 64.9 °F 84% 29.97 in 2.5 mi West 8.1 mph 24.2 mph 0.06 in Rain , Thunderstorm Rain
5:27 PM 69.1 °F - 64.9 °F 87% 29.97 in 0.8 mi West 10.4 mph 20.7 mph 0.15 in Rain , Thunderstorm Heavy Rain
5:33 PM 68.0 °F - 64.9 °F 90% 29.98 in 0.5 mi West 11.5 mph 21.9 mph 0.21 in Fog , Rain , Thunderstorm Heavy Thunderstorms and Rain
5:46 PM 66.9 °F - 64.9 °F 93% 29.99 in 0.2 mi West 9.2 mph - 0.49 in Fog , Rain , Thunderstorm Heavy Thunderstorms and Rain
5:53 PM 66.9 °F - 64.9 °F 93% 29.99 in 0.5 mi WSW 8.1 mph - 0.65 in Fog , Rain , Thunderstorm Heavy Rain
6:11 PM 66.9 °F - 64.9 °F 93% 29.98 in 0.8 mi Variable 3.5 mph - 0.32 in Rain , Thunderstorm Heavy Thunderstorms and Rain
6:20 PM 66.9 °F - 64.9 °F 93% 29.99 in 2.0 mi Calm Calm - 0.33 in Rain , Thunderstorm Thunderstorms and Rain
6:24 PM 66.9 °F - 64.9 °F 93% 29.98 in 3.0 mi NNE 3.5 mph - 0.33 in Rain Rain
6:53 PM 66.9 °F - 64.9 °F 93% 29.95 in 3.0 mi NNE 4.6 mph - 0.35 in Rain Rain
7:53 PM 66.9 °F - 64.9 °F 93% 29.97 in 7.0 mi East 3.5 mph - 0.00 in Rain Light Rain
8:53 PM 66.9 °F - 64.9 °F 93% 29.97 in 10.0 mi Calm Calm - 0.01 in   Mostly Cloudy
10:05 PM 66.9 °F - 66.0 °F 97% 29.99 in 10.0 mi Calm Calm - N/A   Overcast
10:53 PM 66.9 °F - 66.0 °F 97% 29.98 in 10.0 mi Calm Calm - N/A   Overcast
11:38 PM 66.9 °F - 66.0 °F 97% 29.98 in 1.8 mi Calm Calm - N/A   Overcast
11:53 PM 66.9 °F - 66.0 °F 97% 29.97 in 1.0 mi Calm Calm - N/A   Overcast
11:59 PM 66.9 °F - 66.0 °F 97% 29.98 in 4.0 mi Calm Calm - N/A   Overcast